Погода Узловая

Погода Узловая : погода сейчас, прогноз погоды и архив. Всё, что Вы хотите узнать о погоде Узловая!

Поиск расширенной информации на нашем сайте:

Другие новости

Новости СМИ2

Главная страница сайта

Новости сайта

03.07.2017

Напоминаем, что на нашем специализированном сайте Метеоцентр.Азия вы можете получить высокодетализированные автоматические прогнозы погоды по пунктам России, СНГ и мира в авиационном формате (включающие направление и скорость ветра, видимость, явления погоды, количество и форму облачности, нижнюю и верхнюю границу облачности).


Погода Узловая - сегодня

Время (UTC), дата Ветер
(°,м/с) 
Видим.   Явления Облачность Т
(°С)
Тd
(°С)
f(%) Тe
(°С)
Pmin
(гПа)
dP
(гПа)
Po
(мм)
O2
(г/м3)
Тmin Tmax R s Состояние
почвы
12 20.10.17 310 (СЗ) 30000 м    8/8 600 м 
[Sc]
+7.1 -0.6 58 +7  1021.8  -0.4  745  293           
15 20.10.17 320 (СЗ) 30000 м    4/3 1000 м верхняя 
[Sc|Ci sp]
+3.8 -1.3 69 +5  1022.4  0.2  745  296           
18 20.10.17 тихо ()   10 км    ясно 
-1 -2.2 92 -1  1023.2  0.3  746  302    +7.5       
21 20.10.17 280 (З) 6000 м    ясно 
-2.3 -2.8 96 -2  1023.1  -0.3  745  303           
00 21.10.17 280 (З) 5000 м  дымка  4/4 600 м 
[Sc]
-1.9 -2.4 96 -1  1022.3  -0.7  745  303           
03 21.10.17 240 (ЮЗ) 6000 м  дымка  8/8 1000 м 
[Sc]
-1.2 -2.1 94 -1  1021.4  -0.7  744  301  -3.6         
06 21.10.17 280 (З) 9000 м  дымка  8/8 600 м 
[Sc]
+0.8 -0.5 91 +1  1021.2  -0.1  744  299  -3.6        влажная 
09 21.10.17 280 (З) 15000 м    5/5 300 м 
[St]
+5.2 -0.2 68 +5  1020.4  -0.3  744  294           
12 21.10.17 350 (С) 27000 м    4/4 300 м 
[St]
+3.7 -1 71 +2  1019.6  -0.9  743  296           
15 21.10.17 300 (СЗ) 21000 м    3/0 средняя 
[Ac lent]
+0.6 -2.5 80 +1  1019.5  -0.4  743  299           
18 21.10.17 330 (СЗ) 17000 м    9/0 средняя 
[Ac trans]
+0.4 -1.7 86 1019.5  743  299    +7       
21 21.10.17 020 (С) 14000 м    8/8 600 м 
[Sc]
+0.1 -2 86 +1  1019.3  -0.2  743  299           
00 22.10.17 010 (С) 9000 м  дымка  1/0 верхняя 
[Ci sp]
-2.6 -3.5 94 -2  1019.4  -0.1  743  303           
03 22.10.17 350 (С) 9000 м  дымка  10/10 300 м кучево-дожд. 
[Cb cap]
-1.2 -2.7 90 -1  1019.2  -0.1  743  301  -3.1         
06 22.10.17 010 (С) 18000 м    9/9 300 м кучево-дожд. 
[Cb cap]
-0.9 -2.6 88 -2  1020  0.8  743  301  -3.1        замёрзшая 
09 22.10.17 030 (СВ) 25000 м    9/9 300 м кучево-дожд. 
[Cb cap]
+0.1 -3.7 76 +1  1020.3  0.4  744  300           
12 22.10.17 010 (С) 28000 м    9/9 300 м кучево-дожд. 
[Cb cap]
+1.5 -4.8 63 +2  1019.8  -0.4  743  298           
15 22.10.17 300 (СЗ) 20000 м    3/0 средняя 
[Ac trans]
-0.9 -5.3 72 1020.3  0.3  744  301           
18 22.10.17 260 (З) 17000 м    ясно 
-3.6 -5.6 86 -3  1020.7  0.1  744  304    +1.5       
21 22.10.17 250 (З) 15000 м    ясно 
-4.3 -5.7 90 -4  1020.9  0.1  744  305           
00 23.10.17 240 (ЮЗ) 18000 м    3/0 средняя 
[Ac lent]
-4.5 -6.1 89 -4  1020.7  -0.2  744  305           
03 23.10.17 240 (ЮЗ) 22000 м    9/9 1000 м 
[Sc]
-3.8 -5.6 87 -3  1020.5  -0.2  743  304  -4.6         
06 23.10.17 260 (З) 18000 м    8/8 1000 м 
[Sc]
-1.9 -4.8 81 -3  1020.7  0.5  744  302  -4.6        замёрзшая 
09 23.10.17 280 (З) 27000 м    10/10 600 м кучево-дожд. 
[Cb cap]
+1 -4 69 -1  1021.2  0.8  744  299           
12 23.10.17 300 (СЗ) 30000 м    6/6 300 м кучево-дожд. 
[Cb cap]
+2.7 -5 57 +1  1021.9  0.8  745  298           
Время (UTC), дата Ветер
(°,м/с) 
Видим.   Явления Облачность Т
(°С)
Тd
(°С)
f(%) Тe
(°С)
Pmin
(гПа)
dP
(гПа)
Po
(мм)
O2
(г/м3)
Тmin Tmax R s Состояние
почвы

Для получения пояснительной информации подведите курсор к названию столбца.

ПОГОДА Узловая - архив

Всё, что Вы хотите узнать о погоде Узловая - удобно и подробно!

Выберите нужную дату (начиная с 1 января 2015* года) и нажмите кнопку "Найти".
Будут отображены архивные сводки погоды по пункту Узловая, начиная с указанной даты.


Отображать данные в формате CSV (для использования в таблицах Excel)


Внимание! Наш архив погоды предназначен исключительно для личного некоммерческого использования в познавательных целях. Если Вам необходимы официальные справки о состоянии погоды (для производственных, юридических, коммерческих и т.п. целей), обращайтесь в органы Росгидромета.

*Примечание: данная дата относится к архиву по метеостанциям СССР (Россия, СНГ, Балтия).
Архив по метеостанциям Зарубежной Европы и Азии (кроме Китая) хранится 10 дней, по другим регионам земного шара (Китай, Африка, Америка, Австралия, Океания) - 1 день.

Узловая - район местоположения метеостанции


Название, широта, долгота, высота метеостанции:
Узловая 54°ш. 38.1°д. 231 м над ур. моря [Российская Федерация]

Дополнительная информация

В oтличие oт бoльшинства пoгoдных сайтoв мы публикуем пoдрoбную метеoинфoрмацию в детальнoм прoфессиoнальнoм фoрмате.

Характеристики температуры и влажнoсти вoздуха измеряются на высoте 2 м в тени вдали oт зданий и деревьев.
Скoрoсть ветра измеряется на высoте 10 м (на урoвне рoста челoвека скoрoсть ветра ниже в 1.5-2 раза). Если метеoстанция нахoдится в гoрoде или в лесу, тo скoрoсть ветра занижена на 2-4 м/с пo сравнению с oткрытым местoм. Скoрoсть ветра над акватoриями крупных рек и oзёр, а также на вершинах хoлмoв на 2-5 м/с выше, чем в oбычных услoвиях.
Атмoсфернoе давление в разных тoчках местнoсти мoжет значительнo oтличаться oт давления на метеoстанции, в зависимoсти oт услoвий рельефа (при пoдъёме на 10 м давление пoнижается примернo на 1 мм рт.ст.).